Track TELSTAR 11 (ORION 1) now! TELSTAR 11 (ORION 1) is classified as:
1 23413U 94079A 24325.63346094 -.00000016 00000-0 00000-0 0 9991 2 23413 13.2595 20.7722 0014009 17.4358 153.2947 0.98579172108303